| time (UTC) | temp F | wind direction | speed MPH | gust MPH | rain 1hr in | rain 24hr in | rain mn in | humidity % | barometer mb |
| 20260506154504 | 59 | 74 | 8.0 | 14.0 | 0.00 | 0.04 | 0.00 | 78 | 1014.1 |
| 20260506153005 | 59 | 90 | 11.0 | 15.0 | 0.00 | 0.04 | 0.00 | 78 | 1013.9 |
| 20260506151506 | 60 | 77 | 7.0 | 20.0 | 0.00 | 0.04 | 0.00 | 76 | 1013.4 |
| 20260506144504 | 64 | 85 | 8.0 | 16.0 | 0.00 | 0.04 | 0.00 | 75 | 1013.6 |
| 20260506143005 | 64 | 92 | 10.0 | 15.0 | 0.00 | 0.04 | 0.00 | 77 | 1013.3 |
| 20260506141504 | 64 | 96 | 13.0 | 17.0 | 0.00 | 0.04 | 0.00 | 74 | 1013.4 |
| 20260506140004 | 63 | 90 | 12.0 | 16.0 | 0.00 | 0.04 | 0.00 | 78 | 1013.7 |
| 20260506134503 | 63 | 82 | 8.0 | 15.0 | 0.00 | 0.04 | 0.00 | 77 | 1013.9 |
| 20260506130007 | 62 | 102 | 11.0 | 17.0 | 0.00 | 0.04 | 0.00 | 77 | 1014.1 |
| 20260506124505 | 63 | 113 | 7.0 | 17.0 | 0.00 | 0.04 | 0.00 | 77 | 1014.5 |
| 20260506123006 | 65 | 130 | 10.0 | 15.0 | 0.00 | 0.04 | 0.00 | 68 | 1014.4 |
| 20260506121505 | 66 | 115 | 8.0 | 14.0 | 0.00 | 0.04 | 0.00 | 70 | 1014.4 |
| 20260506120006 | 65 | 150 | 6.0 | 14.0 | 0.00 | 0.04 | 0.00 | 69 | 1014.6 |
| 20260506113006 | 66 | 115 | 1.0 | 9.0 | 0.00 | 0.04 | 0.00 | 59 | 1014.5 |
| 20260506110006 | 64 | 140 | 7.0 | 9.0 | 0.00 | 0.04 | 0.00 | 64 | 1014.9 |
| 20260506104506 | 65 | 112 | 2.0 | 11.0 | 0.00 | 0.04 | 0.00 | 61 | 1015.0 |
| 20260506103006 | 64 | 112 | 4.0 | 11.0 | 0.00 | 0.04 | 0.00 | 63 | 1015.0 |
| 20260506101505 | 64 | 88 | 2.0 | 7.0 | 0.00 | 0.04 | 0.00 | 65 | 1015.2 |
| 20260506100005 | 62 | 166 | 0.0 | 4.0 | 0.00 | 0.04 | 0.00 | 63 | 1015.3 |
| 20260506093006 | 59 | 130 | 2.0 | 6.0 | 0.00 | 0.04 | 0.00 | 71 | 1015.2 |
| 20260506091505 | 59 | 130 | 5.0 | 7.0 | 0.00 | 0.04 | 0.00 | 74 | 1015.3 |
| 20260506090006 | 61 | 123 | 3.0 | 7.0 | 0.00 | 0.04 | 0.00 | 71 | 1015.1 |
| 20260506084506 | 61 | 90 | 4.0 | 8.0 | 0.00 | 0.04 | 0.00 | 71 | 1014.9 |
| 20260506083006 | 60 | 214 | 2.0 | 6.0 | 0.00 | 0.04 | 0.00 | 73 | 1015.0 |
| 20260506081505 | 60 | 283 | 2.0 | 4.0 | 0.00 | 0.04 | 0.00 | 85 | 1014.7 |
| 20260506073006 | 53 | 285 | 1.0 | 4.0 | 0.00 | 0.04 | 0.00 | 99 | 1014.5 |
| 20260506071505 | 51 | 265 | 0.0 | 4.0 | 0.00 | 0.04 | 0.00 | 99 | 1014.8 |
| 20260506044505 | 44 | 264 | 1.0 | 2.0 | 0.00 | 0.04 | 0.00 | 99 | 1014.0 |
| 20260506043005 | 44 | 302 | 0.0 | 2.0 | 0.00 | 0.04 | 0.00 | 99 | 1013.4 |
| 20260506041505 | 44 | 337 | 0.0 | 2.0 | 0.00 | 0.04 | 0.00 | 99 | 1013.5 |
| 20260506034506 | 44 | 284 | 0.0 | 2.0 | 0.00 | 0.04 | 0.00 | 99 | 1013.5 |
| 20260506033005 | 45 | 350 | 1.0 | 4.0 | 0.00 | 0.04 | 0.00 | 99 | 1013.6 |
| 20260506031505 | 45 | 283 | 2.0 | 2.0 | 0.00 | 0.04 | 0.00 | 99 | 1013.4 |
| 20260506030006 | 46 | 181 | 0.0 | 2.0 | 0.00 | 0.04 | 0.00 | 99 | 1013.5 |
| 20260506023006 | 45 | 269 | 0.0 | 2.0 | 0.00 | 0.04 | 0.00 | 99 | 1013.3 |
| 20260506020005 | 46 | 286 | 1.0 | 2.0 | 0.00 | 0.04 | 0.00 | 99 | 1013.3 |
| 20260506013005 | 47 | 354 | 1.0 | 4.0 | 0.00 | 0.04 | 0.00 | 99 | 1013.6 |
| 20260506011505 | 47 | 303 | 1.0 | 2.0 | 0.00 | 0.04 | 0.00 | 99 | 1013.5 |
| 20260506010005 | 47 | 295 | 1.0 | 2.0 | 0.00 | 0.04 | 0.00 | 99 | 1013.7 |
| 20260506004505 | 47 | 273 | 0.0 | 2.0 | 0.00 | 0.04 | 0.00 | 99 | 1013.6 |
| 20260506003005 | 48 | 301 | 0.0 | 2.0 | 0.00 | 0.04 | 0.00 | 99 | 1013.7 |
| 20260506001505 | 48 | 302 | 2.0 | 4.0 | 0.00 | 0.04 | 0.00 | 99 | 1014.0 |
| 20260506000006 | 48 | 357 | 1.0 | 4.0 | 0.00 | 0.04 | 0.00 | 99 | 1014.0 |
| 20260505234504 | 48 | 309 | 3.0 | 4.0 | 0.00 | 0.04 | 0.00 | 99 | 1014.1 |
| 20260505231505 | 49 | 264 | 0.0 | 2.0 | 0.00 | 0.04 | 0.00 | 99 | 1014.2 |
| 20260505230005 | 49 | 315 | 0.0 | 2.0 | 0.00 | 0.04 | 0.00 | 99 | 1014.2 |
| 20260505224505 | 49 | 328 | 0.0 | 4.0 | 0.00 | 0.04 | 0.00 | 99 | 1014.2 |
| 20260505223005 | 50 | 357 | 2.0 | 4.0 | 0.00 | 0.04 | 0.00 | 99 | 1014.3 |
| 20260505221504 | 50 | 292 | 0.0 | 2.0 | 0.00 | 0.04 | 0.00 | 99 | 1014.4 |
| 20260505214505 | 50 | 294 | 1.0 | 2.0 | 0.00 | 0.05 | 0.04 | 99 | 1014.8 |
| 20260505213005 | 50 | 284 | 1.0 | 2.0 | 0.00 | 0.06 | 0.04 | 99 | 1014.8 |
| 20260505211504 | 51 | 91 | 1.0 | 2.0 | 0.00 | 0.14 | 0.04 | 99 | 1014.9 |
| 20260505210005 | 51 | 270 | 0.0 | 2.0 | 0.00 | 0.25 | 0.04 | 99 | 1014.9 |
| 20260505204505 | 52 | 240 | 0.0 | 4.0 | 0.00 | 0.26 | 0.04 | 99 | 1014.6 |
| 20260505203005 | 52 | 233 | 0.0 | 2.0 | 0.00 | 0.26 | 0.04 | 99 | 1014.1 |
| 20260505200005 | 52 | 305 | 0.0 | 4.0 | 0.01 | 0.26 | 0.04 | 99 | 1014.2 |
| 20260505194505 | 52 | 358 | 1.0 | 2.0 | 0.02 | 0.26 | 0.04 | 99 | 1014.1 |
| 20260505193005 | 52 | 311 | 0.0 | 2.0 | 0.04 | 0.26 | 0.04 | 98 | 1013.9 |
| 20260505190005 | 53 | 336 | 1.0 | 7.0 | 0.02 | 0.25 | 0.02 | 95 | 1013.4 |
| 20260505184505 | 55 | 339 | 3.0 | 11.0 | 0.01 | 0.24 | 0.01 | 91 | 1013.4 |
| 20260505183005 | 58 | 76 | 1.0 | 4.0 | 0.00 | 0.22 | 0.00 | 96 | 1013.3 |
| 20260505181504 | 58 | 117 | 5.0 | 9.0 | 0.00 | 0.22 | 0.00 | 96 | 1013.3 |
| 20260505174505 | 59 | 119 | 8.0 | 14.0 | 0.00 | 0.22 | 0.00 | 95 | 1012.8 |
| 20260505173005 | 59 | 123 | 11.0 | 14.0 | 0.00 | 0.22 | 0.00 | 95 | 1012.7 |
| 20260505171504 | 60 | 120 | 5.0 | 11.0 | 0.00 | 0.22 | 0.00 | 93 | 1012.7 |
| 20260505170004 | 60 | 122 | 4.0 | 11.0 | 0.00 | 0.22 | 0.00 | 90 | 1012.9 |
| 20260505164505 | 60 | 125 | 6.0 | 11.0 | 0.00 | 0.22 | 0.00 | 86 | 1012.7 |
| 20260505163006 | 60 | 121 | 8.0 | 11.0 | 0.00 | 0.22 | 0.00 | 86 | 1013.1 |
| 20260505161505 | 60 | 120 | 8.0 | 11.0 | 0.00 | 0.22 | 0.00 | 87 | 1013.2 |